Mount Washington, New Hampshire, United States (03589)
Lat: 44.69N, Lon: 71.39W
Wx Zone: NHZ002
Local Info
Past Weather Observations for Today

NOTE: This archive is for the closest National Weather Service station to Mount Washington. Information may differ from the station used for current weather conditions.

Click here for Long-term Archive

Time Weather Temperature Dewpoint Humidity Pressure Winds Precip Visibility
18:52
Clear
64°F / 18°C 61°F / 16°C 88% 30.06 in
(1018 mb)
Calm - 10SM
17:52
Clear
72°F / 22°C 61°F / 16°C 69% 30.06 in
(1018 mb)
SSE 3.5 mph
(SSE 6 kph)
- 10SM
16:52
Clear
73°F / 23°C 61°F / 16°C 65% 30.06 in
(1018 mb)
ESE 3.5 mph
(ESE 6 kph)
- 10SM
15:52
Clear
75°F / 24°C 59°F / 15°C 57% 30.04 in
(1017 mb)
S 4.6 mph
(S 7 kph)
- 10SM
14:52
Clear
77°F / 25°C 55°F / 13°C 47% 30.04 in
(1017 mb)
ESE 6.9 mph
(ESE 11 kph)
- 10SM
13:52
Clear
81°F / 27°C 54°F / 12°C 39% 30.04 in
(1017 mb)
Calm - 10SM
12:52
Clear
79°F / 26°C 54°F / 12°C 42% 30.04 in
(1017 mb)
Calm - 10SM
11:52
Clear
79°F / 26°C 55°F / 13°C 45% 30.04 in
(1017 mb)
SW 6.9 mph
(SW 11 kph)
- 10SM
10:52
Clear
75°F / 24°C 55°F / 13°C 50% 30.06 in
(1018 mb)
SSE 3.5 mph
(SSE 6 kph)
- 10SM
09:52
Clear
70°F / 21°C 57°F / 14°C 64% 30.06 in
(1018 mb)
Calm - 10SM
08:52
Clear
63°F / 17°C 55°F / 13°C 77% 30.06 in
(1018 mb)
Calm - 10SM
08:20
Partly Cloudy
57°F / 14°C 54°F / 12°C 88% 30.06 in
(1018 mb)
Calm - 10SM
08:01
Overcast
Fog And Mist
54°F / 12°C 54°F / 12°C 100% 30.06 in
(1018 mb)
NW 3.5 mph
(NW 6 kph)
- 4SM
07:58
Overcast
Fog And Mist
54°F / 12°C 52°F / 11°C 94% 30.06 in
(1018 mb)
Variable 3.5 mph
(Variable 6 kph)
- 1SM
07:52
Obscured
Fog
54°F / 12°C 52°F / 11°C 94% 30.06 in
(1018 mb)
Calm - 1/4SM
07:40
Overcast
Fog
52°F / 11°C 52°F / 11°C 100% 30.06 in
(1018 mb)
N 3.5 mph
(N 6 kph)
- 1/2SM
07:26
Obscured
Fog
52°F / 11°C 50°F / 10°C 94% 30.06 in
(1018 mb)
Calm - 1/4SM
07:14
Overcast
Fog And Mist
50°F / 10°C 50°F / 10°C 100% 30.06 in
(1018 mb)
Calm - 1SM
06:52
Obscured
Fog
48°F / 9°C 48°F / 9°C 100% 30.06 in
(1018 mb)
Calm - 1/4SM
06:32
Obscured
Fog
48°F / 9°C 48°F / 9°C 100% 30.06 in
(1018 mb)
Calm - 1/4SM
06:24
Overcast
Fog And Mist
48°F / 9°C 48°F / 9°C 100% 30.06 in
(1018 mb)
Calm - 3/4SM
06:16
Overcast
Fog And Mist
48°F / 9°C 48°F / 9°C 100% 30.06 in
(1018 mb)
Calm - 1 3/4SM
06:07
Overcast
Fog And Mist
48°F / 9°C 48°F / 9°C 100% 30.06 in
(1018 mb)
Calm - 1SM
05:52
Obscured
Fog
48°F / 9°C 48°F / 9°C 100% 30.06 in
(1018 mb)
N 3.5 mph
(N 6 kph)
- 1/4SM
04:52
Obscured
Fog
48°F / 9°C 46°F / 8°C 94% 30.04 in
(1017 mb)
Calm - 1/4SM
03:52
Obscured
Fog
46°F / 8°C 46°F / 8°C 100% 30.04 in
(1017 mb)
Calm - 1/4SM
02:52
Obscured
Fog
48°F / 9°C 48°F / 9°C 100% 30.01 in
(1016 mb)
Calm - 1/4SM
01:52
Obscured
Fog
48°F / 9°C 48°F / 9°C 100% 30.04 in
(1017 mb)
Calm - 1/4SM
01:38
Obscured
Fog
48°F / 9°C 48°F / 9°C 100% 30.04 in
(1017 mb)
Calm - 1/4SM
01:31
Obscured
Fog
48°F / 9°C 48°F / 9°C 100% 30.04 in
(1017 mb)
Calm - 1/4SM
00:52
Obscured
Fog
48°F / 9°C 48°F / 9°C 100% 30.01 in
(1016 mb)
Calm - 1/4SM
00:35
Obscured
Fog
48°F / 9°C 48°F / 9°C 100% 30.01 in
(1016 mb)
Calm - 1/4SM
00:18
Obscured
Fog
48°F / 9°C 48°F / 9°C 100% 30.01 in
(1016 mb)
Calm - 1/2SM
Time Weather Temperature Dewpoint Humidity Pressure Winds Precip Visibility


Weather for websites

WeatherForYou.com, LLC is not responsible for any damages or problems caused by this service. Current weather conditions are obtained from the closest station including government and personal stations which may have varying degrees of accuracy. Weather forecasts are derived from the NOAA NDFD. Like all things, this site belongs to Jesus Christ... He just trusts me to maintain it. If you have any questions or comments email webmaster@weatherforyou.com

Copyright © 2014, WeatherForYou.com LLC. All rights reserved.